GW3560 Weather Reports


time (UTC)temp
C
wind
direction
speed
KPH
gust
KPH
rain 1hr
cm
rain 24hr
cm
rain mn
cm
humidity
%
barometer
mb
20260503201513 12 14 0.0 1.6 0.00 0.00 0.00 86 1015.1
20260503200055 12 319 0.0 0.0 0.00 0.00 0.00 86 1015.0
20260503194509 12 319 0.0 1.6 0.00 0.00 0.00 87 1015.0
20260503193028 12 332 0.0 0.0 0.00 0.00 0.00 86 1014.8
20260503191603 12 332 0.0 1.6 0.00 0.00 0.00 86 1014.8
20260503190031 12 296 0.0 0.0 0.00 0.00 0.00 86 1014.9
20260503184537 12 296 0.0 0.0 0.00 0.00 0.00 86 1014.9
20260503183035 12 296 0.0 0.0 0.00 0.00 0.00 85 1015.0
20260503181549 12 296 0.0 3.2 0.00 0.00 0.00 84 1014.9
20260503180042 12 303 0.0 3.2 0.00 0.00 0.00 84 1014.7
20260503174556 12 315 0.0 1.6 0.00 0.00 0.00 84 1014.7
20260503173041 12 315 0.0 1.6 0.00 0.00 0.00 84 1014.6
20260503171600 12 310 0.0 1.6 0.00 0.00 0.00 83 1014.7
20260503081520 17 61 3.2 12.9 0.00 0.00 0.00 73 1016.5
20260503071514 18 76 1.6 9.7 0.00 0.00 0.00 68 1016.1
20260503054605 21 50 6.4 12.9 0.00 0.00 0.00 54 1016.2
20260503053036 22 68 1.6 8.0 0.00 0.00 0.00 54 1016.2
20260503051552 22 21 3.2 11.3 0.00 0.00 0.00 53 1016.3
20260503050036 21 287 3.2 12.9 0.00 0.00 0.00 54 1016.4
20260503044547 22 315 1.6 12.9 0.00 0.00 0.00 54 1016.6
20260503043033 22 341 3.2 11.3 0.00 0.00 0.00 54 1016.7
20260503041544 21 35 3.2 12.9 0.00 0.00 0.00 56 1016.7
20260503040017 22 38 3.2 11.3 0.00 0.00 0.00 56 1016.8
20260503034511 21 260 4.8 12.9 0.00 0.00 0.00 57 1017.2
20260503033051 21 322 1.6 8.0 0.00 0.00 0.00 57 1017.4
20260503031503 21 25 1.6 9.7 0.00 0.00 0.00 58 1017.6
20260503030003 21 328 1.6 11.3 0.00 0.00 0.00 60 1017.6
20260503024507 21 290 3.2 11.3 0.00 0.00 0.00 59 1017.9
20260503023048 21 12 3.2 11.3 0.00 0.00 0.00 59 1018.2
20260503021553 21 39 3.2 12.9 0.00 0.00 0.00 61 1018.3
20260503020029 20 303 4.8 9.7 0.00 0.00 0.00 61 1018.8
20260503014546 20 282 4.8 9.7 0.00 0.00 0.00 67 1019.0
20260503013030 19 329 0.0 8.0 0.00 0.00 0.00 68 1019.5
20260503011516 18 270 0.0 6.4 0.00 0.00 0.00 73 1019.8
20260503010059 18 281 3.2 8.0 0.00 0.00 0.00 74 1020.1
20260503004557 17 222 3.2 6.4 0.00 0.00 0.00 76 1020.3
20260503003042 17 287 1.6 9.7 0.00 0.00 0.00 79 1020.4
20260503001545 17 270 1.6 8.0 0.00 0.00 0.00 80 1020.5
20260503000017 16 300 1.6 6.4 0.00 0.00 0.00 80 1020.6
20260502234513 16 264 0.0 3.2 0.00 0.00 0.00 84 1020.8
20260502233043 15 14 0.0 4.8 0.00 0.00 0.00 86 1020.8
20260502231502 13 277 0.0 4.8 0.00 0.00 0.00 90 1020.9
20260502230037 13 272 1.6 4.8 0.00 0.00 0.00 92 1021.1
20260502224549 12 272 1.6 4.8 0.00 0.00 0.00 93 1021.2
20260502223044 11 259 1.6 4.8 0.00 0.00 0.00 95 1021.2
20260502221556 11 264 0.0 1.6 0.00 0.00 0.00 96 1021.1
20260502220039 11 286 0.0 1.6 0.00 0.00 0.00 96 1021.0
20260502214555 11 73 0.0 0.0 0.00 0.00 0.00 97 1020.9
20260502213033 10 73 0.0 4.8 0.00 0.00 0.00 96 1020.7
20260502211547 10 301 0.0 3.2 0.00 0.00 0.00 96 1020.5
20260502210038 10 275 0.0 3.2 0.00 0.03 0.00 95 1020.2
20260502204554 10 336 0.0 0.0 0.00 0.03 0.00 95 1019.9
20260502203040 10 336 0.0 0.0 0.00 0.03 0.00 95 1020.0